User: anonymous   Login
Location: Estes Par
(40.3770°N, 105.5210°W)
Time: 22:07:34
(UTC-06:00)
Language:

Vanguard 1 Rocket - Orbit

View from above orbital plane
View from above orbital plane
View from above satellite
View from above satellite

Ground track
Ground track

The orbit data is extracted from the following two-line orbital elements,

1    16U 58002A   18168.10865415 +.00000081 +00000-0 +13688-3 0  9994
2    16 034.2610 106.4906 2025128 034.0455 337.4882 10.48656628382051
Epoch (UTC): 17 June 2018 02:36:27
Eccentricity: 0.2025128
inclination: 34.2610°
perigee height: 653 km
apogee height: 4224 km
right ascension of ascending node: 106.4906°
argument of perigee: 34.0455°
revolutions per day: 10.48656628
mean anomaly at epoch: 337.4882°
orbit number at epoch: 38205

The dashed part of the orbit path shows where the satellite is in the earth's shadow,  

DLR